Tracking 30009 objects as of 7-Dec-2024
HD Live streaming from Space Station
objects crossing your sky now

STARLINK-5892

Track STARLINK-5892 now!
10-day predictions
STARLINK-5892 is classified as:


NORAD ID: 55954
Int'l Code: 2023-037AS
Perigee: 577.2 km
Apogee: 581.2 km
Inclination: 70.0 °
Period: 96.1 minutes
Semi major axis: 6950 km
RCS: Unknown
Launch date: March 17, 2023
Source: United States (US)
Launch site: AIR FORCE WESTERN TEST RANGE (AFWTR)
Your satellite tracking list
Your tracking list is empty




NASA's NSSDC Master Catalog

Two Line Element Set (TLE):
1 55954U 23037AS  24342.10948177 -.00000486  00000-0 -32920-4 0  9995
2 55954  69.9995 338.1156 0002869 267.3484  92.7347 14.98328658 96273
Source of the keplerian elements: AFSPC